Location: Barruelo
(41.2448°N, 3.8231°W)
Time: 07:05:32
(UTC+00:00)

SOZ - Pass Details

Date: 18 March 2026
Orbit: 299 x 12047 km, 52.0° (Epoch: 14 April)

Event Time Altitude Azimuth Distance (km) Brightness Sun altitude
Rises 02:28:56 0° 207° (SSW) 16,982 11.9 -40.8°
Enters shadow 02:38:40 - 207° (SSW) 15,999 11.7 -39.5°
Exits shadow 03:12:35 26° 206° (SSW) 10,741 10.8 -34.6°
Maximum altitude 03:42:35 68° 138° (SE) 3,797 8.9 -29.8°
Drops below altitude 10° 03:53:47 10° 58° (ENE) 3,938 10.1 -27.9°
Sets 03:55:41 0° 56° (NE) 4,436 10.7 -27.6°
